Paducah, KY

5:50 AM CDT on May 29, 2017 (GMT -0500)
Barkley Regional

Weather History for KPAH - February, 2013

Change the Weather History Date:

Friday, February 22, 2013

  Actual Average Record
Temperature  
Mean Temperature 38 °F 41 °F  
Max Temperature 44 °F 51 °F 72 °F (1992)
Min Temperature 32 °F 31 °F -3 °F (1963)
Degree Days  
Heating Degree Days 27 24  
Month to date heating degree days 583 587  
Since 1 July heating degree days 2956 3160  
Cooling Degree Days 0 0  
Month to date cooling degree days 0 0  
Year to date cooling degree days 0 0  
Moisture  
Dew Point 34 °F    
Average Humidity 88    
Maximum Humidity 100    
Minimum Humidity 75    
Precipitation  
Precipitation 0.00 in 0.14 in 1.45 in (2003)
Month to date precipitation 3.04 3.08  
Year to date precipitation 11.09 6.76  
Snow  
Snow 0.00 in 0.10 in T in (2003)
Month to date snowfall T 2.7  
Since 1 July snowfall 6.1 8.0  
Snow Depth 0.00 in    
Sea Level Pressure  
Sea Level Pressure 29.97 in    
Wind  
Wind Speed 9 mph (WSW)    
Max Wind Speed 20 mph    
Max Gust Speed 24 mph    
Visibility 8 miles    
Events      
T = Trace of Precipitation, MM = Missing Value Source: NWS Daily Summary

Daily Weather History Graph

Daily Weather History Graph

Search for Another Location

Airport or City:

Trip Planner

Search our weather history database for the weather conditions in past years. The results will help you decide how hot, cold, wet, or windy it might be!

Date:

Astronomy

Feb. 22, 2013 Rise Set
Actual Time 6:34 AM CST 5:42 PM CST
Civil Twilight 6:08 AM CST 6:08 PM CST
Nautical Twilight 5:38 AM CST 6:39 PM CST
Astronomical Twilight 5:08 AM CST 7:09 PM CST
Moon 2:56 PM CST (2/22) 4:17 AM CST (2/22)
Length of Visible Light 12h 00m
Length of Day
11h 07m
Waxing Gibbous, 90% of the Moon is Illuminated
Feb 22
Waxing Gibbous
Feb 25
Full
Mar 4
Last Quarter
Mar 11
New
Mar 19
First Quarter

Hourly Weather History & Observations

Time (CST) Temp. Windchill Dew Point Humidity Pressure Visibility Wind Dir Wind Speed Gust Speed Precip Events Conditions
12:53 AM 37.9 °F 35.5 °F 36.0 °F 93% 29.84 in 3.0 mi WSW 3.5 mph - N/A   Overcast
1:02 AM 37.4 °F - 37.4 °F 100% 29.83 in 2.5 mi Calm Calm - N/A   Overcast
1:23 AM 37.4 °F - 35.6 °F 93% 29.84 in 2.5 mi Calm Calm - N/A   Overcast
1:38 AM 37.4 °F 34.9 °F 37.4 °F 100% 29.84 in 3.0 mi SW 3.5 mph - N/A   Overcast
1:53 AM 37.9 °F 35.5 °F 37.0 °F 97% 29.85 in 3.0 mi SSW 3.5 mph - N/A   Overcast
2:10 AM 39.2 °F 34.2 °F 37.4 °F 93% 29.84 in 4.0 mi SW 6.9 mph - N/A   Overcast
2:30 AM 39.2 °F 35.0 °F 37.4 °F 93% 29.84 in 4.0 mi SW 5.8 mph - N/A   Overcast
2:53 AM 39.0 °F 32.8 °F 37.9 °F 96% 29.85 in 5.0 mi SW 9.2 mph - N/A   Overcast
3:53 AM 37.9 °F 29.2 °F 36.0 °F 93% 29.88 in 10.0 mi WSW 15.0 mph - N/A   Overcast
4:53 AM 36.0 °F 27.5 °F 34.0 °F 93% 29.93 in 9.0 mi WSW 12.7 mph - N/A   Overcast
5:31 AM 33.8 °F 25.8 °F 33.8 °F 100% 29.93 in 2.5 mi West 10.4 mph - N/A   Overcast
5:50 AM 33.8 °F 25.8 °F 33.8 °F 100% 29.93 in 3.0 mi WSW 10.4 mph - N/A   Overcast
5:53 AM 34.0 °F 26.0 °F 33.1 °F 96% 29.95 in 3.0 mi WSW 10.4 mph - N/A   Overcast
6:01 AM 33.8 °F 26.4 °F 33.8 °F 100% 29.94 in 2.5 mi SW 9.2 mph - N/A   Overcast
6:26 AM 33.8 °F 27.0 °F 33.8 °F 100% 29.94 in 3.0 mi West 8.1 mph - N/A   Overcast
6:53 AM 34.0 °F 28.0 °F 33.1 °F 96% 29.96 in 6.0 mi WSW 6.9 mph - N/A   Overcast
7:27 AM 33.8 °F 26.4 °F 32.0 °F 93% 29.96 in 8.0 mi WSW 9.2 mph - N/A   Overcast
7:53 AM 34.0 °F 27.2 °F 32.0 °F 92% 29.99 in 9.0 mi SW 8.1 mph - N/A   Overcast
8:53 AM 37.0 °F 31.0 °F 34.0 °F 89% 30.01 in 10.0 mi SW 8.1 mph - N/A   Mostly Cloudy
9:38 AM 39.2 °F 31.6 °F 35.6 °F 87% 30.01 in 10.0 mi WSW 12.7 mph - N/A   Overcast
9:53 AM 39.0 °F 32.8 °F 34.0 °F 82% 30.02 in 10.0 mi SW 9.2 mph - N/A   Overcast
10:06 AM 39.2 °F 33.0 °F 35.6 °F 87% 30.01 in 10.0 mi SW 9.2 mph - N/A   Overcast
10:37 AM 39.2 °F 33.0 °F 35.6 °F 87% 30.03 in 10.0 mi SSW 9.2 mph - N/A   Overcast
10:53 AM 39.9 °F 32.5 °F 35.1 °F 83% 30.04 in 10.0 mi WSW 12.7 mph 20.7 mph N/A   Overcast
11:53 AM 41.0 °F 33.1 °F 35.1 °F 79% 30.02 in 10.0 mi WSW 15.0 mph - N/A   Overcast
12:53 PM 42.1 °F 35.7 °F 36.0 °F 79% 30.00 in 10.0 mi SW 11.5 mph - N/A   Overcast
1:53 PM 43.0 °F 36.0 °F 35.1 °F 74% 30.00 in 10.0 mi SSW 13.8 mph 18.4 mph N/A   Overcast
2:53 PM 42.1 °F 36.1 °F 36.0 °F 79% 30.00 in 10.0 mi SSW 10.4 mph - N/A   Overcast
3:53 PM 42.1 °F 37.1 °F 36.0 °F 79% 29.99 in 10.0 mi SW 8.1 mph - N/A   Overcast
4:53 PM 42.1 °F 37.1 °F 36.0 °F 79% 30.00 in 10.0 mi WSW 8.1 mph - N/A   Overcast
5:53 PM 41.0 °F 35.8 °F 35.1 °F 79% 30.01 in 10.0 mi WSW 8.1 mph - N/A   Overcast
6:32 PM 37.4 °F 32.1 °F 33.8 °F 87% 30.03 in 10.0 mi WSW 6.9 mph - N/A   Partly Cloudy
6:53 PM 37.0 °F 33.3 °F 32.0 °F 82% 30.03 in 10.0 mi WSW 4.6 mph - N/A   Clear
7:53 PM 37.0 °F 31.6 °F 30.9 °F 79% 30.06 in 10.0 mi NW 6.9 mph - N/A   Partly Cloudy
8:53 PM 34.0 °F 28.8 °F 28.0 °F 79% 30.08 in 10.0 mi NW 5.8 mph - N/A   Mostly Cloudy
9:53 PM 34.0 °F 29.8 °F 27.0 °F 75% 30.08 in 10.0 mi NW 4.6 mph - N/A   Overcast
10:53 PM 33.1 °F 27.7 °F 26.1 °F 75% 30.07 in 10.0 mi NW 5.8 mph - N/A   Overcast
11:22 PM 33.8 °F 29.6 °F 26.6 °F 75% 30.06 in 10.0 mi NW 4.6 mph - N/A   Scattered Clouds
11:53 PM 32.0 °F 27.5 °F 26.1 °F 79% 30.06 in 10.0 mi WNW 4.6 mph - N/A   Clear